Powrót do katalogu

STARLINK-3764

AktywnyŁącznośćVLEO
NORAD 52280·PAYLOAD·🇺🇸 United States

Wystrzelony Apr 21, 2022 z Cape Canaveral Space Force Station

Loading…

Następne Przeloty (najbliższe 24 godziny)

TLE

ŚwieżeSource: CelesTrak SupGP

Epoka: Sep 14, 2026, 21:37 UTC

1 52280C 22041V   26257.90118056 -.00025636  00000+0 -82454-3 0  2574
2 52280  53.1586 327.1315 0001207  80.2601 285.6506 15.31709015    11

Śledź STARLINK-3764 w czasie rzeczywistym z AllMySat

Download on the App Store